Location: Newark
(42.9858°N, 0.6717°E)
Time: 22:12:22
(UTC+00:00)

Envisat - Pass Details

Date: 30 October 2019
Orbit: 764 x 766 km, 98.1° (Epoch: 18 November)

Event Time Altitude Azimuth Distance (km) Brightness Sun altitude
Rises 17:57:03 0° 166° (SSE) 3,218 6.2 -12.3°
Reaches altitude 10° 17:59:20 10° 166° (SSE) 2,296 5.4 -12.7°
Maximum altitude 18:04:25 88° 256° (WSW) 772 3.0 -13.6°
Drops below altitude 10° 18:09:31 10° 347° (NNW) 2,312 5.6 -14.6°
Sets 18:11:50 0° 347° (NNW) 3,242 6.3 -15.0°
